Location: *
(50.0228°S, 177.2688°W)
Time: 14:58:56
(UTC+00:00)

Lacrosse 5 - Pass Details

Date: 07 April 2020
Orbit: 715 x 724 km, 57.0° (Epoch: 27 May)

Event Time Altitude Azimuth Distance (km) Brightness Sun altitude
Rises 06:28:10 0° 327° (NNW) 3,140 5.6 -11.3°
Reaches altitude 10° 06:30:37 10° 333° (NNW) 2,225 4.7 -11.7°
Maximum altitude 06:35:30 45° 45° (NE) 990 2.3 -12.5°
Enters shadow 06:39:24 16° 112° (ESE) 1,876 3.5 -13.1°
